Time,TemperatureF,DewpointF,PressureIn,WindDirection,WindDirectionDegrees,WindSpeedMPH,WindSpeedGustMPH,Humidity,HourlyPrecipIn,Conditions,Clouds,dailyrainin,SoftwareType,DateUTC
2013-05-14 00:01:00,50.2,44.3,30.20,WSW,248,0.4,1.6,80,0.00,,,0.00,WUHU216HW,2013-05-14 07:01:00,
2013-05-14 00:06:00,50.0,44.1,30.20,WSW,248,2.0,2.0,80,0.00,,,0.00,WUHU216HW,2013-05-14 07:06:00,
2013-05-14 00:11:00,50.0,44.4,30.20,West,270,0.2,2.2,81,0.00,,,0.00,WUHU216HW,2013-05-14 07:11:00,
2013-05-14 00:16:00,49.9,44.2,30.20,SSW,203,0.0,2.2,81,0.00,,,0.00,WUHU216HW,2013-05-14 07:16:00,
2013-05-14 00:21:00,49.7,44.0,30.20,South,180,0.4,1.1,81,0.00,,,0.00,WUHU216HW,2013-05-14 07:21:00,
2013-05-14 00:26:00,49.9,44.2,30.21,SW,225,0.4,1.8,81,0.00,,,0.00,WUHU216HW,2013-05-14 07:26:00,
2013-05-14 00:31:00,49.7,44.0,30.21,WNW,293,0.2,1.8,81,0.00,,,0.00,WUHU216HW,2013-05-14 07:31:00,
2013-05-14 00:36:00,49.7,44.4,30.21,SW,225,0.4,1.3,82,0.00,,,0.00,WUHU216HW,2013-05-14 07:36:00,
2013-05-14 00:41:00,49.7,44.4,30.20,NNW,338,0.0,1.3,82,0.00,,,0.00,WUHU216HW,2013-05-14 07:41:00,
2013-05-14 00:46:00,49.7,44.4,30.20,SW,225,2.0,2.0,82,0.00,,,0.00,WUHU216HW,2013-05-14 07:46:00,
2013-05-14 00:51:00,49.7,44.4,30.21,WNW,293,0.4,2.0,82,0.00,,,0.00,WUHU216HW,2013-05-14 07:51:00,
2013-05-14 00:56:00,49.7,44.4,30.21,WNW,293,0.0,1.3,82,0.00,,,0.00,WUHU216HW,2013-05-14 07:56:00,
2013-05-14 01:01:00,49.5,44.2,30.21,South,180,2.2,2.2,82,0.00,,,0.00,WUHU216HW,2013-05-14 08:01:00,
2013-05-14 01:06:00,49.7,44.4,30.21,SSE,158,1.1,2.2,82,0.00,,,0.00,WUHU216HW,2013-05-14 08:06:00,
2013-05-14 01:11:00,49.7,44.4,30.21,NW,315,1.3,2.2,82,0.00,,,0.00,WUHU216HW,2013-05-14 08:11:00,
2013-05-14 01:16:00,49.9,44.6,30.21,SSE,158,1.1,1.3,82,0.00,,,0.00,WUHU216HW,2013-05-14 08:16:00,
2013-05-14 01:21:00,50.0,44.7,30.21,SSW,203,1.8,1.8,82,0.00,,,0.00,WUHU216HW,2013-05-14 08:21:00,
2013-05-14 01:26:00,50.0,44.4,30.21,ESE,113,0.4,1.8,81,0.00,,,0.00,WUHU216HW,2013-05-14 08:26:00,
2013-05-14 01:31:00,50.0,44.4,30.21,South,180,1.3,1.8,81,0.00,,,0.00,WUHU216HW,2013-05-14 08:31:00,
2013-05-14 01:36:00,50.0,44.4,30.21,SSW,203,0.7,1.8,81,0.00,,,0.00,WUHU216HW,2013-05-14 08:36:00,
2013-05-14 01:41:00,50.0,44.4,30.21,South,180,1.1,1.8,81,0.00,,,0.00,WUHU216HW,2013-05-14 08:41:00,
2013-05-14 01:46:00,50.0,44.7,30.21,SSW,203,2.7,2.7,82,0.00,,,0.00,WUHU216HW,2013-05-14 08:46:00,
2013-05-14 01:51:00,50.0,44.4,30.21,SSE,158,0.4,2.7,81,0.00,,,0.00,WUHU216HW,2013-05-14 08:51:00,
2013-05-14 01:56:00,50.0,44.7,30.21,SSE,158,3.4,3.4,82,0.00,,,0.00,WUHU216HW,2013-05-14 08:56:00,
2013-05-14 02:01:00,50.0,44.7,30.21,SSE,158,4.5,4.5,82,0.00,,,0.00,WUHU216HW,2013-05-14 09:01:00,
2013-05-14 02:06:00,50.0,44.7,30.21,SSE,158,2.7,4.5,82,0.00,,,0.00,WUHU216HW,2013-05-14 09:06:00,
2013-05-14 02:11:00,50.2,44.6,30.21,SSE,158,1.1,2.7,81,0.00,,,0.00,WUHU216HW,2013-05-14 09:11:00,
2013-05-14 02:16:00,50.2,44.6,30.21,SW,225,4.7,4.7,81,0.00,,,0.00,WUHU216HW,2013-05-14 09:16:00,
2013-05-14 02:21:00,50.2,44.6,30.21,South,180,2.7,4.7,81,0.00,,,0.00,WUHU216HW,2013-05-14 09:21:00,
2013-05-14 02:26:00,50.2,44.6,30.22,SSE,158,0.4,4.0,81,0.00,,,0.00,WUHU216HW,2013-05-14 09:26:00,
2013-05-14 02:31:00,50.2,44.6,30.22,South,180,2.2,3.6,81,0.00,,,0.00,WUHU216HW,2013-05-14 09:31:00,
2013-05-14 02:36:00,50.0,44.4,30.22,South,180,1.3,2.5,81,0.00,,,0.00,WUHU216HW,2013-05-14 09:36:00,
2013-05-14 02:41:00,50.0,44.4,30.22,South,180,0.4,2.5,81,0.00,,,0.00,WUHU216HW,2013-05-14 09:41:00,
2013-05-14 02:46:00,50.0,44.4,30.22,SSE,158,0.9,2.5,81,0.00,,,0.00,WUHU216HW,2013-05-14 09:46:00,
2013-05-14 02:51:00,50.2,44.6,30.22,ESE,113,0.4,3.1,81,0.00,,,0.00,WUHU216HW,2013-05-14 09:51:00,
2013-05-14 02:56:00,50.0,44.4,30.22,SE,135,0.9,3.1,81,0.00,,,0.00,WUHU216HW,2013-05-14 09:56:00,
2013-05-14 03:01:00,50.0,44.4,30.22,SSE,158,1.1,2.5,81,0.00,,,0.00,WUHU216HW,2013-05-14 10:01:00,
2013-05-14 03:06:00,50.0,44.7,30.22,South,180,1.1,2.0,82,0.00,,,0.00,WUHU216HW,2013-05-14 10:06:00,
2013-05-14 03:11:00,50.0,44.7,30.22,SE,135,2.2,2.2,82,0.00,,,0.00,WUHU216HW,2013-05-14 10:11:00,
2013-05-14 03:16:00,50.0,44.7,30.22,SE,135,1.6,3.1,82,0.00,,,0.00,WUHU216HW,2013-05-14 10:16:00,
2013-05-14 03:21:00,50.0,44.7,30.23,ESE,113,2.5,3.1,82,0.00,,,0.00,WUHU216HW,2013-05-14 10:21:00,
2013-05-14 03:26:00,49.9,44.6,30.22,SSE,158,1.8,2.7,82,0.00,,,0.00,WUHU216HW,2013-05-14 10:26:00,
2013-05-14 03:31:00,49.9,44.6,30.22,SSE,158,1.1,2.7,82,0.00,,,0.00,WUHU216HW,2013-05-14 10:31:00,
2013-05-14 03:36:00,50.0,44.7,30.23,SSE,158,1.6,2.5,82,0.00,,,0.00,WUHU216HW,2013-05-14 10:36:00,
2013-05-14 03:41:00,49.9,44.6,30.22,ESE,113,0.9,2.2,82,0.00,,,0.00,WUHU216HW,2013-05-14 10:41:00,
2013-05-14 03:46:00,49.9,44.6,30.23,ESE,113,1.1,2.7,82,0.00,,,0.00,WUHU216HW,2013-05-14 10:46:00,
2013-05-14 03:51:00,49.9,44.2,30.23,South,180,1.1,2.7,81,0.00,,,0.00,WUHU216HW,2013-05-14 10:51:00,
2013-05-14 03:56:00,49.7,44.0,30.23,East,90,2.9,2.9,81,0.00,,,0.00,WUHU216HW,2013-05-14 10:56:00,
2013-05-14 04:01:00,49.5,43.8,30.23,ENE,68,0.2,2.9,81,0.00,,,0.00,WUHU216HW,2013-05-14 11:01:00,
2013-05-14 04:07:00,49.5,44.2,30.23,SE,135,2.2,2.2,82,0.00,,,0.00,WUHU216HW,2013-05-14 11:07:00,
2013-05-14 04:12:00,49.5,43.8,30.23,SSE,158,1.1,4.0,81,0.00,,,0.00,WUHU216HW,2013-05-14 11:12:00,
2013-05-14 04:17:00,49.5,43.8,30.23,SSE,158,1.1,4.0,81,0.00,,,0.00,WUHU216HW,2013-05-14 11:17:00,
2013-05-14 04:22:00,49.3,44.0,30.23,SE,135,0.9,1.8,82,0.00,,,0.00,WUHU216HW,2013-05-14 11:22:00,
2013-05-14 04:27:00,49.3,43.7,30.24,SW,225,1.1,2.9,81,0.00,,,0.00,WUHU216HW,2013-05-14 11:27:00,
2013-05-14 04:32:00,49.3,43.7,30.24,SW,225,1.1,2.9,81,0.00,,,0.00,WUHU216HW,2013-05-14 11:32:00,
2013-05-14 04:37:00,49.3,44.0,30.24,SSE,158,0.9,1.3,82,0.00,,,0.00,WUHU216HW,2013-05-14 11:37:00,
2013-05-14 04:42:00,49.3,44.0,30.24,ESE,113,0.4,1.3,82,0.00,,,0.00,WUHU216HW,2013-05-14 11:42:00,
2013-05-14 04:47:00,49.3,44.0,30.24,ESE,113,1.1,1.3,82,0.00,,,0.00,WUHU216HW,2013-05-14 11:47:00,
2013-05-14 04:52:00,49.3,44.0,30.24,ESE,113,0.9,1.3,82,0.00,,,0.00,WUHU216HW,2013-05-14 11:52:00,
2013-05-14 04:57:00,49.3,44.0,30.24,ENE,68,0.2,2.0,82,0.00,,,0.00,WUHU216HW,2013-05-14 11:57:00,
2013-05-14 05:02:00,49.3,44.0,30.24,SE,135,1.8,2.0,82,0.00,,,0.00,WUHU216HW,2013-05-14 12:02:00,
2013-05-14 05:07:00,49.3,44.0,30.24,SSE,158,1.8,1.8,82,0.00,,,0.00,WUHU216HW,2013-05-14 12:07:00,
2013-05-14 05:12:00,49.1,43.8,30.24,SSE,158,1.1,1.8,82,0.00,,,0.00,WUHU216HW,2013-05-14 12:12:00,
2013-05-14 05:17:00,49.3,44.0,30.24,South,180,1.6,1.6,82,0.00,,,0.00,WUHU216HW,2013-05-14 12:17:00,
2013-05-14 05:22:00,49.3,44.0,30.24,SSW,203,0.2,2.7,82,0.00,,,0.00,WUHU216HW,2013-05-14 12:22:00,
2013-05-14 05:27:00,49.3,44.0,30.24,West,270,0.0,2.7,82,0.00,,,0.00,WUHU216HW,2013-05-14 12:27:00,
2013-05-14 05:32:00,49.5,44.2,30.24,SSE,158,0.0,2.0,82,0.00,,,0.00,WUHU216HW,2013-05-14 12:32:00,
2013-05-14 05:37:00,49.5,44.2,30.24,SSW,203,0.4,0.4,82,0.00,,,0.00,WUHU216HW,2013-05-14 12:37:00,
2013-05-14 05:42:00,49.5,44.2,30.24,WSW,248,0.4,1.1,82,0.00,,,0.00,WUHU216HW,2013-05-14 12:42:00,
2013-05-14 05:47:00,49.7,44.4,30.24,SE,135,0.9,1.1,82,0.00,,,0.00,WUHU216HW,2013-05-14 12:47:00,
2013-05-14 05:52:00,49.7,44.4,30.24,South,180,1.1,1.1,82,0.00,,,0.00,WUHU216HW,2013-05-14 12:52:00,
2013-05-14 05:57:00,49.7,44.4,30.23,North,0,2.5,2.5,82,0.00,,,0.00,WUHU216HW,2013-05-14 12:57:00,
2013-05-14 06:02:00,49.9,44.6,30.23,South,180,1.1,2.5,82,0.00,,,0.00,WUHU216HW,2013-05-14 13:02:00,
2013-05-14 06:07:00,49.9,44.6,30.23,ESE,113,2.2,2.5,82,0.00,,,0.00,WUHU216HW,2013-05-14 13:07:00,
2013-05-14 06:12:00,50.0,44.7,30.24,SSE,158,0.4,2.2,82,0.00,,,0.00,WUHU216HW,2013-05-14 13:12:00,
2013-05-14 06:17:00,49.9,44.2,30.24,SSE,158,0.9,1.8,81,0.00,,,0.00,WUHU216HW,2013-05-14 13:17:00,
2013-05-14 06:22:00,49.9,44.2,30.24,SSW,203,0.0,1.8,81,0.00,,,0.00,WUHU216HW,2013-05-14 13:22:00,
2013-05-14 06:27:00,49.7,44.0,30.24,ESE,113,0.0,1.6,81,0.00,,,0.00,WUHU216HW,2013-05-14 13:27:00,
2013-05-14 06:32:00,49.7,44.0,30.24,East,90,1.1,1.6,81,0.00,,,0.00,WUHU216HW,2013-05-14 13:32:00,
2013-05-14 06:37:00,49.7,43.7,30.24,ESE,113,0.4,1.3,80,0.00,,,0.00,WUHU216HW,2013-05-14 13:37:00,
2013-05-14 06:42:00,49.7,43.7,30.24,NE,45,1.8,1.8,80,0.00,,,0.00,WUHU216HW,2013-05-14 13:42:00,
2013-05-14 06:47:00,49.7,44.0,30.24,ENE,68,0.9,1.8,81,0.00,,,0.00,WUHU216HW,2013-05-14 13:47:00,
2013-05-14 06:52:00,49.9,43.9,30.25,South,180,0.2,1.1,80,0.00,,,0.00,WUHU216HW,2013-05-14 13:52:00,
2013-05-14 06:57:00,49.9,43.9,30.25,SSW,203,0.9,1.1,80,0.00,,,0.00,WUHU216HW,2013-05-14 13:57:00,
2013-05-14 07:02:00,50.0,44.4,30.25,ESE,113,0.4,1.1,81,0.00,,,0.00,WUHU216HW,2013-05-14 14:02:00,
2013-05-14 07:07:00,50.4,44.5,30.24,SSE,158,0.4,1.1,80,0.00,,,0.00,WUHU216HW,2013-05-14 14:07:00,
2013-05-14 07:12:00,50.8,44.8,30.24,South,180,1.3,1.3,80,0.00,,,0.00,WUHU216HW,2013-05-14 14:12:00,
2013-05-14 07:17:00,51.1,44.8,30.24,South,180,1.1,1.8,79,0.00,,,0.00,WUHU216HW,2013-05-14 14:17:00,
2013-05-14 07:22:00,51.5,44.2,30.24,South,180,1.3,2.5,76,0.00,,,0.00,WUHU216HW,2013-05-14 14:22:00,
2013-05-14 07:27:00,51.5,44.8,30.24,SSW,203,3.4,3.4,78,0.00,,,0.00,WUHU216HW,2013-05-14 14:27:00,
2013-05-14 07:32:00,52.0,44.4,30.24,South,180,1.8,3.4,75,0.00,,,0.00,WUHU216HW,2013-05-14 14:32:00,
2013-05-14 07:37:00,52.2,44.9,30.24,SSE,158,0.9,3.1,76,0.00,,,0.00,WUHU216HW,2013-05-14 14:37:00,
2013-05-14 07:42:00,52.4,44.7,30.24,South,180,1.8,3.1,75,0.00,,,0.00,WUHU216HW,2013-05-14 14:42:00,
2013-05-14 07:47:00,52.9,45.2,30.24,SSE,158,1.3,2.2,75,0.00,,,0.00,WUHU216HW,2013-05-14 14:47:00,
2013-05-14 07:52:00,53.3,45.5,30.24,SSW,203,2.7,3.1,75,0.00,,,0.00,WUHU216HW,2013-05-14 14:52:00,
2013-05-14 07:57:00,53.5,45.7,30.24,South,180,1.3,4.7,75,0.00,,,0.00,WUHU216HW,2013-05-14 14:57:00,
2013-05-14 08:02:00,53.8,46.1,30.24,South,180,1.6,4.7,75,0.00,,,0.00,WUHU216HW,2013-05-14 15:02:00,
2013-05-14 08:07:00,54.2,46.5,30.24,SW,225,1.1,2.9,75,0.00,,,0.00,WUHU216HW,2013-05-14 15:07:00,
2013-05-14 08:12:00,54.4,46.6,30.24,SSW,203,1.1,3.1,75,0.00,,,0.00,WUHU216HW,2013-05-14 15:12:00,
2013-05-14 08:17:00,54.4,46.6,30.24,WSW,248,2.5,3.1,75,0.00,,,0.00,WUHU216HW,2013-05-14 15:17:00,
2013-05-14 08:22:00,54.4,46.6,30.24,South,180,1.8,2.5,75,0.00,,,0.00,WUHU216HW,2013-05-14 15:22:00,
2013-05-14 08:27:00,54.2,46.1,30.24,South,180,2.5,2.5,74,0.00,,,0.00,WUHU216HW,2013-05-14 15:27:00,
2013-05-14 08:32:00,53.8,46.1,30.24,SSE,158,2.5,3.4,75,0.00,,,0.00,WUHU216HW,2013-05-14 15:32:00,
2013-05-14 08:37:00,53.8,46.1,30.24,NW,315,0.2,3.4,75,0.00,,,0.00,WUHU216HW,2013-05-14 15:37:00,
2013-05-14 08:42:00,53.8,46.1,30.24,South,180,1.3,3.1,75,0.00,,,0.00,WUHU216HW,2013-05-14 15:42:00,
2013-05-14 08:47:00,53.8,46.1,30.24,ESE,113,1.1,3.1,75,0.00,,,0.00,WUHU216HW,2013-05-14 15:47:00,
2013-05-14 08:52:00,53.8,46.1,30.24,South,180,2.0,2.0,75,0.00,,,0.00,WUHU216HW,2013-05-14 15:52:00,
2013-05-14 08:57:00,54.0,46.6,30.24,South,180,2.5,2.5,76,0.00,,,0.00,WUHU216HW,2013-05-14 15:57:00,
2013-05-14 09:02:00,54.0,46.3,30.24,South,180,0.9,3.1,75,0.00,,,0.00,WUHU216HW,2013-05-14 16:02:00,
2013-05-14 09:07:00,54.2,46.5,30.24,South,180,0.2,3.1,75,0.00,,,0.00,WUHU216HW,2013-05-14 16:07:00,
2013-05-14 09:12:00,54.2,46.5,30.24,SSE,158,0.4,2.5,75,0.00,,,0.00,WUHU216HW,2013-05-14 16:12:00,
2013-05-14 09:17:00,54.2,46.5,30.23,SSE,158,1.8,2.2,75,0.00,,,0.00,WUHU216HW,2013-05-14 16:17:00,
2013-05-14 09:22:00,54.4,46.6,30.23,WSW,248,2.7,2.7,75,0.00,,,0.00,WUHU216HW,2013-05-14 16:22:00,
2013-05-14 09:27:00,54.5,47.1,30.23,SSW,203,0.2,2.7,76,0.00,,,0.00,WUHU216HW,2013-05-14 16:27:00,
2013-05-14 09:32:00,54.5,46.8,30.23,SSE,158,1.6,2.5,75,0.00,,,0.00,WUHU216HW,2013-05-14 16:32:00,
2013-05-14 09:37:00,55.4,46.6,30.24,ESE,113,1.8,3.1,72,0.00,,,0.00,WUHU216HW,2013-05-14 16:37:00,
2013-05-14 09:42:00,55.8,46.5,30.23,South,180,2.5,3.4,71,0.00,,,0.00,WUHU216HW,2013-05-14 16:42:00,
2013-05-14 09:47:00,55.8,47.3,30.23,SSE,158,2.0,3.4,73,0.00,,,0.00,WUHU216HW,2013-05-14 16:47:00,
2013-05-14 09:52:00,56.0,47.4,30.23,South,180,1.8,2.0,73,0.00,,,0.00,WUHU216HW,2013-05-14 16:52:00,
2013-05-14 09:57:00,56.2,47.6,30.24,WSW,248,2.2,2.2,73,0.00,,,0.00,WUHU216HW,2013-05-14 16:57:00,
2013-05-14 10:02:00,56.0,47.4,30.24,South,180,1.8,3.8,73,0.00,,,0.00,WUHU216HW,2013-05-14 17:02:00,
2013-05-14 10:07:00,55.8,47.3,30.24,WSW,248,2.9,3.8,73,0.00,,,0.00,WUHU216HW,2013-05-14 17:07:00,
2013-05-14 10:12:00,55.6,47.1,30.24,SSW,203,0.7,2.9,73,0.00,,,0.00,WUHU216HW,2013-05-14 17:12:00,
2013-05-14 10:17:00,55.4,46.9,30.24,South,180,2.7,2.9,73,0.00,,,0.00,WUHU216HW,2013-05-14 17:17:00,
2013-05-14 10:22:00,55.4,46.9,30.24,SSE,158,0.9,2.7,73,0.00,,,0.00,WUHU216HW,2013-05-14 17:22:00,
2013-05-14 10:27:00,55.8,47.3,30.24,South,180,0.9,1.8,73,0.00,,,0.00,WUHU216HW,2013-05-14 17:27:00,
2013-05-14 10:32:00,56.2,47.6,30.24,South,180,1.1,2.5,73,0.00,,,0.00,WUHU216HW,2013-05-14 17:32:00,
2013-05-14 10:37:00,56.9,48.2,30.24,South,180,1.8,2.5,73,0.00,,,0.00,WUHU216HW,2013-05-14 17:37:00,
2013-05-14 10:42:00,58.0,49.0,30.24,West,270,1.8,2.2,72,0.00,,,0.00,WUHU216HW,2013-05-14 17:42:00,
2013-05-14 10:47:00,59.2,49.1,30.24,West,270,1.3,3.6,69,0.00,,,0.00,WUHU216HW,2013-05-14 17:47:00,
2013-05-14 10:52:00,60.7,48.9,30.24,South,180,1.8,3.6,65,0.00,,,0.00,WUHU216HW,2013-05-14 17:52:00,
2013-05-14 10:57:00,61.6,50.1,30.24,NW,315,0.0,2.9,66,0.00,,,0.00,WUHU216HW,2013-05-14 17:57:00,
2013-05-14 11:02:00,61.9,49.2,30.24,SSE,158,2.5,2.9,63,0.00,,,0.00,WUHU216HW,2013-05-14 18:02:00,
2013-05-14 11:07:00,61.4,46.5,30.24,SSE,158,2.2,2.7,58,0.00,,,0.00,WUHU216HW,2013-05-14 18:07:00,
2013-05-14 11:12:00,61.0,48.0,30.24,WSW,248,1.1,2.7,62,0.00,,,0.00,WUHU216HW,2013-05-14 18:12:00,
2013-05-14 11:17:00,61.2,47.7,30.23,South,180,1.8,3.4,61,0.00,,,0.00,WUHU216HW,2013-05-14 18:17:00,
2013-05-14 11:22:00,60.8,46.0,30.24,East,90,2.2,4.0,58,0.00,,,0.00,WUHU216HW,2013-05-14 18:22:00,
2013-05-14 11:27:00,60.7,46.8,30.24,SSW,203,1.1,4.0,60,0.00,,,0.00,WUHU216HW,2013-05-14 18:27:00,
2013-05-14 11:32:00,60.5,45.2,30.24,NNW,338,1.6,4.3,57,0.00,,,0.00,WUHU216HW,2013-05-14 18:32:00,
2013-05-14 11:37:00,60.7,45.8,30.24,South,180,1.1,4.3,58,0.00,,,0.00,WUHU216HW,2013-05-14 18:37:00,
2013-05-14 11:42:00,61.0,45.2,30.23,South,180,3.4,3.4,56,0.00,,,0.00,WUHU216HW,2013-05-14 18:42:00,
2013-05-14 11:47:00,61.2,44.4,30.23,SSE,158,3.6,3.6,54,0.00,,,0.00,WUHU216HW,2013-05-14 18:47:00,
2013-05-14 11:52:00,60.7,45.4,30.23,SE,135,2.9,4.3,57,0.00,,,0.00,WUHU216HW,2013-05-14 18:52:00,
2013-05-14 11:57:00,60.5,45.6,30.23,SSE,158,2.2,4.3,58,0.00,,,0.00,WUHU216HW,2013-05-14 18:57:00,
2013-05-14 12:02:00,60.8,44.6,30.23,SSE,158,3.4,3.8,55,0.00,,,0.00,WUHU216HW,2013-05-14 19:02:00,
2013-05-14 12:07:00,61.2,46.4,30.23,WSW,248,2.9,3.4,58,0.00,,,0.00,WUHU216HW,2013-05-14 19:07:00,
2013-05-14 12:12:00,61.7,45.8,30.23,South,180,2.7,3.6,56,0.00,,,0.00,WUHU216HW,2013-05-14 19:12:00,
2013-05-14 12:17:00,61.2,44.4,30.23,SSE,158,2.9,4.0,54,0.00,,,0.00,WUHU216HW,2013-05-14 19:17:00,
2013-05-14 12:22:00,61.4,46.0,30.22,SE,135,2.7,4.0,57,0.00,,,0.00,WUHU216HW,2013-05-14 19:22:00,
2013-05-14 12:27:00,61.6,46.2,30.22,South,180,2.9,4.7,57,0.00,,,0.00,WUHU216HW,2013-05-14 19:27:00,
2013-05-14 12:32:00,61.7,44.4,30.22,South,180,2.2,4.7,53,0.00,,,0.00,WUHU216HW,2013-05-14 19:32:00,
2013-05-14 12:37:00,61.6,44.7,30.22,SSE,158,2.9,3.4,54,0.00,,,0.00,WUHU216HW,2013-05-14 19:37:00,
2013-05-14 12:42:00,61.6,43.3,30.22,SSE,158,2.9,4.0,51,0.00,,,0.00,WUHU216HW,2013-05-14 19:42:00,
2013-05-14 12:47:00,61.2,43.9,30.21,SE,135,4.0,4.0,53,0.00,,,0.00,WUHU216HW,2013-05-14 19:47:00,
2013-05-14 12:52:00,61.0,43.3,30.22,NNE,23,1.3,4.9,52,0.00,,,0.00,WUHU216HW,2013-05-14 19:52:00,
2013-05-14 12:57:00,61.4,45.0,30.21,NE,45,0.9,4.9,55,0.00,,,0.00,WUHU216HW,2013-05-14 19:57:00,
2013-05-14 13:02:00,61.6,44.2,30.21,South,180,0.9,4.0,53,0.00,,,0.00,WUHU216HW,2013-05-14 20:02:00,
2013-05-14 13:07:00,61.2,43.9,30.21,South,180,2.0,4.0,53,0.00,,,0.00,WUHU216HW,2013-05-14 20:07:00,
2013-05-14 13:12:00,61.6,42.8,30.21,SSE,158,3.6,3.6,50,0.00,,,0.00,WUHU216HW,2013-05-14 20:12:00,
2013-05-14 13:17:00,61.7,43.9,30.21,SSE,158,3.4,3.6,52,0.00,,,0.00,WUHU216HW,2013-05-14 20:17:00,
2013-05-14 13:22:00,61.6,43.7,30.21,East,90,1.6,4.5,52,0.00,,,0.00,WUHU216HW,2013-05-14 20:22:00,
2013-05-14 13:27:00,61.6,42.2,30.21,SSE,158,3.6,4.5,49,0.00,,,0.00,WUHU216HW,2013-05-14 20:27:00,
2013-05-14 13:32:00,61.4,43.1,30.21,SSW,203,1.1,3.6,51,0.00,,,0.00,WUHU216HW,2013-05-14 20:32:00,
2013-05-14 13:37:00,61.6,42.2,30.21,SSE,158,4.3,4.3,49,0.00,,,0.00,WUHU216HW,2013-05-14 20:37:00,
2013-05-14 13:42:00,61.6,43.3,30.20,SE,135,1.8,4.3,51,0.00,,,0.00,WUHU216HW,2013-05-14 20:42:00,
2013-05-14 13:47:00,62.3,42.8,30.20,NE,45,0.4,4.3,49,0.00,,,0.00,WUHU216HW,2013-05-14 20:47:00,
2013-05-14 13:52:00,62.5,41.9,30.20,South,180,2.9,4.5,47,0.00,,,0.00,WUHU216HW,2013-05-14 20:52:00,
2013-05-14 13:57:00,62.6,43.2,30.20,SE,135,2.2,4.5,49,0.00,,,0.00,WUHU216HW,2013-05-14 20:57:00,
2013-05-14 14:02:00,62.3,42.8,30.20,South,180,3.4,4.5,49,0.00,,,0.00,WUHU216HW,2013-05-14 21:02:00,
2013-05-14 14:07:00,62.3,44.4,30.20,WNW,293,2.0,4.3,52,0.00,,,0.00,WUHU216HW,2013-05-14 21:07:00,
2013-05-14 14:12:00,62.6,42.0,30.20,South,180,2.5,3.4,47,0.00,,,0.00,WUHU216HW,2013-05-14 21:12:00,
2013-05-14 14:17:00,62.6,42.0,30.20,SSE,158,3.4,4.3,47,0.00,,,0.00,WUHU216HW,2013-05-14 21:17:00,
2013-05-14 14:22:00,62.8,42.2,30.20,SSE,158,2.9,4.3,47,0.00,,,0.00,WUHU216HW,2013-05-14 21:22:00,
2013-05-14 14:27:00,62.8,41.1,30.21,South,180,3.6,4.5,45,0.00,,,0.00,WUHU216HW,2013-05-14 21:27:00,
2013-05-14 14:32:00,62.8,42.2,30.20,ENE,68,2.2,4.5,47,0.00,,,0.00,WUHU216HW,2013-05-14 21:32:00,
2013-05-14 14:37:00,62.5,40.7,30.20,South,180,1.8,5.4,45,0.00,,,0.00,WUHU216HW,2013-05-14 21:37:00,
2013-05-14 14:42:00,61.9,41.4,30.19,South,180,3.1,5.4,47,0.00,,,0.00,WUHU216HW,2013-05-14 21:42:00,
2013-05-14 14:47:00,61.6,41.6,30.19,ENE,68,2.5,3.1,48,0.00,,,0.00,WUHU216HW,2013-05-14 21:47:00,
2013-05-14 14:52:00,61.7,41.8,30.19,NW,315,1.6,5.1,48,0.00,,,0.00,WUHU216HW,2013-05-14 21:52:00,
2013-05-14 14:57:00,61.9,42.5,30.19,South,180,1.1,5.1,49,0.00,,,0.00,WUHU216HW,2013-05-14 21:57:00,
2013-05-14 15:02:00,62.3,41.7,30.19,South,180,1.8,4.3,47,0.00,,,0.00,WUHU216HW,2013-05-14 22:02:00,
2013-05-14 15:07:00,62.3,41.1,30.19,South,180,2.2,3.4,46,0.00,,,0.00,WUHU216HW,2013-05-14 22:07:00,
2013-05-14 15:12:00,62.1,41.0,30.19,ESE,113,2.7,4.0,46,0.00,,,0.00,WUHU216HW,2013-05-14 22:12:00,
2013-05-14 15:17:00,61.9,42.5,30.18,SW,225,0.9,4.0,49,0.00,,,0.00,WUHU216HW,2013-05-14 22:17:00,
2013-05-14 15:22:00,61.6,41.6,30.18,SSE,158,2.0,2.7,48,0.00,,,0.00,WUHU216HW,2013-05-14 22:22:00,
2013-05-14 15:27:00,61.9,41.4,30.18,SSE,158,2.5,3.4,47,0.00,,,0.00,WUHU216HW,2013-05-14 22:27:00,
2013-05-14 15:32:00,61.9,40.2,30.18,ENE,68,2.0,3.4,45,0.00,,,0.00,WUHU216HW,2013-05-14 22:32:00,
2013-05-14 15:37:00,61.6,40.5,30.18,NE,45,2.0,3.1,46,0.00,,,0.00,WUHU216HW,2013-05-14 22:37:00,
2013-05-14 15:42:00,61.6,40.5,30.18,SSW,203,0.4,3.1,46,0.00,,,0.00,WUHU216HW,2013-05-14 22:42:00,
2013-05-14 15:47:00,61.6,40.5,30.17,SSE,158,1.8,1.8,46,0.00,,,0.00,WUHU216HW,2013-05-14 22:47:00,
2013-05-14 15:52:00,61.6,41.0,30.17,East,90,1.3,1.8,47,0.00,,,0.00,WUHU216HW,2013-05-14 22:52:00,
2013-05-14 15:57:00,61.7,41.2,30.17,ENE,68,1.1,3.1,47,0.00,,,0.00,WUHU216HW,2013-05-14 22:57:00,
2013-05-14 16:02:00,61.9,42.5,30.17,SSW,203,3.8,3.8,49,0.00,,,0.00,WUHU216HW,2013-05-14 23:02:00,
2013-05-14 16:07:00,61.9,41.9,30.17,East,90,1.1,3.8,48,0.00,,,0.00,WUHU216HW,2013-05-14 23:07:00,
2013-05-14 16:12:00,61.9,40.8,30.17,SE,135,3.8,3.8,46,0.00,,,0.00,WUHU216HW,2013-05-14 23:12:00,
2013-05-14 16:17:00,62.1,41.5,30.17,South,180,2.0,3.8,47,0.00,,,0.00,WUHU216HW,2013-05-14 23:17:00,
2013-05-14 16:22:00,61.9,41.9,30.16,SSW,203,1.8,2.7,48,0.00,,,0.00,WUHU216HW,2013-05-14 23:22:00,
2013-05-14 16:27:00,61.6,42.2,30.16,SSE,158,1.8,2.5,49,0.00,,,0.00,WUHU216HW,2013-05-14 23:27:00,
2013-05-14 16:32:00,61.6,41.6,30.16,East,90,1.1,2.5,48,0.00,,,0.00,WUHU216HW,2013-05-14 23:32:00,
2013-05-14 16:37:00,61.4,40.3,30.16,SSW,203,0.4,3.4,46,0.00,,,0.00,WUHU216HW,2013-05-14 23:37:00,
2013-05-14 16:42:00,61.2,40.1,30.16,SE,135,1.3,3.4,46,0.00,,,0.00,WUHU216HW,2013-05-14 23:42:00,
2013-05-14 16:47:00,61.2,41.3,30.16,NNW,338,0.4,3.1,48,0.00,,,0.00,WUHU216HW,2013-05-14 23:47:00,
2013-05-14 16:52:00,61.0,40.6,30.16,ESE,113,0.4,2.0,47,0.00,,,0.00,WUHU216HW,2013-05-14 23:52:00,
2013-05-14 16:57:00,61.0,41.1,30.16,SSW,203,0.7,2.0,48,0.00,,,0.00,WUHU216HW,2013-05-14 23:57:00,
2013-05-14 17:02:00,60.8,42.1,30.16,SW,225,0.4,2.0,50,0.00,,,0.00,WUHU216HW,2013-05-15 00:02:00,
2013-05-14 17:07:00,60.8,42.1,30.16,East,90,1.3,1.3,50,0.00,,,0.00,WUHU216HW,2013-05-15 00:07:00,
2013-05-14 17:12:00,61.4,41.5,30.16,SE,135,1.8,1.8,48,0.00,,,0.00,WUHU216HW,2013-05-15 00:12:00,
2013-05-14 17:17:00,61.6,41.0,30.16,SSE,158,2.0,2.0,47,0.00,,,0.00,WUHU216HW,2013-05-15 00:17:00,
2013-05-14 17:22:00,61.6,41.6,30.16,South,180,0.7,2.0,48,0.00,,,0.00,WUHU216HW,2013-05-15 00:22:00,
2013-05-14 17:26:00,61.9,41.4,30.16,SE,135,1.8,3.4,47,0.00,,,0.00,WUHU216HW,2013-05-15 00:26:00,
2013-05-14 17:31:00,61.9,40.8,30.16,South,180,2.2,3.4,46,0.00,,,0.00,WUHU216HW,2013-05-15 00:31:00,
2013-05-14 17:36:00,61.9,41.4,30.16,South,180,1.8,2.9,47,0.00,,,0.00,WUHU216HW,2013-05-15 00:36:00,
2013-05-14 17:41:00,61.9,41.4,30.16,SSE,158,1.8,3.4,47,0.00,,,0.00,WUHU216HW,2013-05-15 00:41:00,
2013-05-14 17:46:00,61.9,41.9,30.16,SSE,158,1.8,3.4,48,0.00,,,0.00,WUHU216HW,2013-05-15 00:46:00,
2013-05-14 17:51:00,61.9,41.4,30.15,SSE,158,0.4,2.2,47,0.00,,,0.00,WUHU216HW,2013-05-15 00:51:00,
2013-05-14 17:56:00,62.1,41.5,30.15,SSE,158,2.0,2.2,47,0.00,,,0.00,WUHU216HW,2013-05-15 00:56:00,
2013-05-14 18:01:00,61.9,42.5,30.15,SSE,158,1.1,2.0,49,0.00,,,0.00,WUHU216HW,2013-05-15 01:01:00,
2013-05-14 18:06:00,61.9,41.9,30.15,SSE,158,0.4,1.1,48,0.00,,,0.00,WUHU216HW,2013-05-15 01:06:00,
2013-05-14 18:11:00,61.9,42.5,30.15,WNW,293,0.0,1.8,49,0.00,,,0.00,WUHU216HW,2013-05-15 01:11:00,
2013-05-14 18:16:00,61.7,42.9,30.16,NNW,338,0.7,1.8,50,0.00,,,0.00,WUHU216HW,2013-05-15 01:16:00,
2013-05-14 18:21:00,61.7,43.4,30.15,East,90,0.4,1.1,51,0.00,,,0.00,WUHU216HW,2013-05-15 01:21:00,
2013-05-14 18:26:00,61.7,43.4,30.15,ENE,68,0.0,0.9,51,0.00,,,0.00,WUHU216HW,2013-05-15 01:26:00,
2013-05-14 18:31:00,61.6,43.7,30.15,North,0,0.7,0.9,52,0.00,,,0.00,WUHU216HW,2013-05-15 01:31:00,
2013-05-14 18:36:00,61.6,43.7,30.15,WSW,248,0.0,0.9,52,0.00,,,0.00,WUHU216HW,2013-05-15 01:36:00,
2013-05-14 18:41:00,61.4,44.1,30.15,WSW,248,0.0,0.0,53,0.00,,,0.00,WUHU216HW,2013-05-15 01:41:00,
2013-05-14 18:46:00,61.2,43.9,30.15,WSW,248,0.0,0.4,53,0.00,,,0.00,WUHU216HW,2013-05-15 01:46:00,
2013-05-14 18:51:00,61.0,43.7,30.15,WSW,248,0.0,0.4,53,0.00,,,0.00,WUHU216HW,2013-05-15 01:51:00,
2013-05-14 18:56:00,61.0,44.2,30.15,WSW,248,0.0,0.0,54,0.00,,,0.00,WUHU216HW,2013-05-15 01:56:00,
2013-05-14 19:01:00,60.8,44.1,30.15,WSW,248,0.0,0.0,54,0.00,,,0.00,WUHU216HW,2013-05-15 02:01:00,
2013-05-14 19:06:00,60.7,43.9,30.15,West,270,0.0,0.0,54,0.00,,,0.00,WUHU216HW,2013-05-15 02:06:00,
2013-05-14 19:11:00,60.7,44.4,30.15,West,270,0.0,0.0,55,0.00,,,0.00,WUHU216HW,2013-05-15 02:11:00,
2013-05-14 19:16:00,60.5,44.2,30.14,NNW,338,0.7,0.7,55,0.00,,,0.00,WUHU216HW,2013-05-15 02:16:00,
2013-05-14 19:21:00,60.5,44.2,30.14,NNW,338,0.0,0.7,55,0.00,,,0.00,WUHU216HW,2013-05-15 02:21:00,
2013-05-14 19:26:00,60.5,44.2,30.14,NNW,338,0.0,0.2,55,0.00,,,0.00,WUHU216HW,2013-05-15 02:26:00,
2013-05-14 19:31:00,60.5,44.2,30.14,NNW,338,0.4,0.4,55,0.00,,,0.00,WUHU216HW,2013-05-15 02:31:00,
2013-05-14 19:36:00,60.5,44.7,30.14,NNE,23,0.0,0.4,56,0.00,,,0.00,WUHU216HW,2013-05-15 02:36:00,
2013-05-14 19:41:00,60.5,44.7,30.14,NNE,23,0.4,0.4,56,0.00,,,0.00,WUHU216HW,2013-05-15 02:41:00,
2013-05-14 19:46:00,60.5,44.2,30.14,North,0,1.1,1.3,55,0.00,,,0.00,WUHU216HW,2013-05-15 02:46:00,
2013-05-14 19:51:00,60.5,44.7,30.14,NNE,23,0.4,1.3,56,0.00,,,0.00,WUHU216HW,2013-05-15 02:51:00,
2013-05-14 19:56:00,60.3,44.6,30.14,NW,315,0.0,0.4,56,0.00,,,0.00,WUHU216HW,2013-05-15 02:56:00,
2013-05-14 20:01:00,60.3,44.6,30.15,NNW,338,0.4,0.7,56,0.00,,,0.00,WUHU216HW,2013-05-15 03:01:00,
2013-05-14 20:06:00,60.1,44.4,30.15,North,0,1.1,1.1,56,0.00,,,0.00,WUHU216HW,2013-05-15 03:06:00,
2013-05-14 20:11:00,60.1,44.4,30.15,North,0,0.4,1.1,56,0.00,,,0.00,WUHU216HW,2013-05-15 03:11:00,
2013-05-14 20:16:00,59.9,44.2,30.14,NNW,338,0.4,1.1,56,0.00,,,0.00,WUHU216HW,2013-05-15 03:16:00,
2013-05-14 20:21:00,59.8,44.5,30.14,NNW,338,0.4,0.9,57,0.00,,,0.00,WUHU216HW,2013-05-15 03:21:00,
2013-05-14 20:26:00,59.4,44.1,30.14,NNW,338,0.0,0.4,57,0.00,,,0.00,WUHU216HW,2013-05-15 03:26:00,
2013-05-14 20:31:00,59.4,44.1,30.14,NNW,338,0.2,0.4,57,0.00,,,0.00,WUHU216HW,2013-05-15 03:31:00,
2013-05-14 20:36:00,59.2,44.5,30.14,NNW,338,0.2,1.1,58,0.00,,,0.00,WUHU216HW,2013-05-15 03:36:00,
2013-05-14 20:41:00,59.0,44.7,30.14,NNW,338,0.9,1.1,59,0.00,,,0.00,WUHU216HW,2013-05-15 03:41:00,
2013-05-14 20:46:00,58.7,43.9,30.14,NNW,338,0.2,1.1,58,0.00,,,0.00,WUHU216HW,2013-05-15 03:46:00,
2013-05-14 20:51:00,58.5,44.2,30.14,NNW,338,0.9,1.1,59,0.00,,,0.00,WUHU216HW,2013-05-15 03:51:00,
2013-05-14 20:56:00,58.3,44.1,30.14,NNW,338,0.4,1.1,59,0.00,,,0.00,WUHU216HW,2013-05-15 03:56:00,
2013-05-14 21:01:00,58.1,43.9,30.14,North,0,0.2,0.9,59,0.00,,,0.00,WUHU216HW,2013-05-15 04:01:00,
2013-05-14 21:06:00,58.0,44.2,30.14,North,0,0.7,0.7,60,0.00,,,0.00,WUHU216HW,2013-05-15 04:06:00,
2013-05-14 21:11:00,58.0,44.2,30.14,North,0,0.4,0.7,60,0.00,,,0.00,WUHU216HW,2013-05-15 04:11:00,
2013-05-14 21:16:00,57.8,44.0,30.14,North,0,0.4,1.1,60,0.00,,,0.00,WUHU216HW,2013-05-15 04:16:00,
2013-05-14 21:21:00,57.6,43.9,30.14,North,0,1.3,1.3,60,0.00,,,0.00,WUHU216HW,2013-05-15 04:21:00,
2013-05-14 21:26:00,57.6,44.3,30.14,NW,315,0.9,1.3,61,0.00,,,0.00,WUHU216HW,2013-05-15 04:26:00,
2013-05-14 21:31:00,57.4,44.1,30.14,NNW,338,1.6,1.6,61,0.00,,,0.00,WUHU216HW,2013-05-15 04:31:00,
2013-05-14 21:36:00,57.2,43.9,30.14,North,0,0.0,1.6,61,0.00,,,0.00,WUHU216HW,2013-05-15 04:36:00,
2013-05-14 21:41:00,57.1,43.7,30.14,NNW,338,0.4,1.1,61,0.00,,,0.00,WUHU216HW,2013-05-15 04:41:00,
2013-05-14 21:46:00,56.9,44.0,30.15,WSW,248,0.0,1.1,62,0.00,,,0.00,WUHU216HW,2013-05-15 04:46:00,
2013-05-14 21:51:00,56.7,43.8,30.15,WSW,248,0.0,0.7,62,0.00,,,0.00,WUHU216HW,2013-05-15 04:51:00,
2013-05-14 21:56:00,56.7,43.8,30.15,WSW,248,0.0,0.0,62,0.00,,,0.00,WUHU216HW,2013-05-15 04:56:00,
2013-05-14 22:01:00,56.7,43.8,30.15,WSW,248,0.0,0.0,62,0.00,,,0.00,WUHU216HW,2013-05-15 05:01:00,
2013-05-14 22:06:00,56.5,44.0,30.15,WSW,248,0.0,0.0,63,0.00,,,0.00,WUHU216HW,2013-05-15 05:06:00,
2013-05-14 22:11:00,56.2,44.1,30.15,WSW,248,0.0,0.0,64,0.00,,,0.00,WUHU216HW,2013-05-15 05:11:00,
2013-05-14 22:16:00,56.0,43.9,30.15,WSW,248,0.0,0.4,64,0.00,,,0.00,WUHU216HW,2013-05-15 05:16:00,
2013-05-14 22:21:00,55.8,44.6,30.15,East,90,0.2,0.4,66,0.00,,,0.00,WUHU216HW,2013-05-15 05:21:00,
2013-05-14 22:26:00,55.6,44.4,30.15,East,90,0.4,0.4,66,0.00,,,0.00,WUHU216HW,2013-05-15 05:26:00,
2013-05-14 22:31:00,55.4,44.6,30.15,NE,45,0.2,0.4,67,0.00,,,0.00,WUHU216HW,2013-05-15 05:31:00,
2013-05-14 22:36:00,55.3,44.5,30.15,East,90,0.0,2.0,67,0.00,,,0.00,WUHU216HW,2013-05-15 05:36:00,
2013-05-14 22:41:00,55.1,44.3,30.15,ESE,113,0.0,2.0,67,0.00,,,0.00,WUHU216HW,2013-05-15 05:41:00,
2013-05-14 22:46:00,54.9,44.6,30.15,SE,135,0.4,0.7,68,0.00,,,0.00,WUHU216HW,2013-05-15 05:46:00,
2013-05-14 22:51:00,54.7,44.4,30.15,SSW,203,0.7,0.9,68,0.00,,,0.00,WUHU216HW,2013-05-15 05:51:00,
2013-05-14 22:56:00,54.5,44.2,30.15,SSW,203,0.0,0.9,68,0.00,,,0.00,WUHU216HW,2013-05-15 05:56:00,
2013-05-14 23:01:00,54.4,44.5,30.15,SSW,203,0.0,0.4,69,0.00,,,0.00,WUHU216HW,2013-05-15 06:01:00,
2013-05-14 23:06:00,54.2,44.3,30.15,SSW,203,0.0,0.4,69,0.00,,,0.00,WUHU216HW,2013-05-15 06:06:00,
2013-05-14 23:11:00,54.0,44.5,30.15,NNE,23,0.0,0.4,70,0.00,,,0.00,WUHU216HW,2013-05-15 06:11:00,
2013-05-14 23:16:00,53.8,44.3,30.15,NNE,23,0.0,0.4,70,0.00,,,0.00,WUHU216HW,2013-05-15 06:16:00,
2013-05-14 23:21:00,53.6,44.1,30.15,NNE,23,0.0,0.0,70,0.00,,,0.00,WUHU216HW,2013-05-15 06:21:00,
2013-05-14 23:26:00,53.5,44.3,30.15,NNE,23,0.0,0.2,71,0.00,,,0.00,WUHU216HW,2013-05-15 06:26:00,
2013-05-14 23:31:00,53.3,44.1,30.15,NNE,23,0.2,0.2,71,0.00,,,0.00,WUHU216HW,2013-05-15 06:31:00,
2013-05-14 23:36:00,53.3,44.5,30.15,NNE,23,0.0,0.2,72,0.00,,,0.00,WUHU216HW,2013-05-15 06:36:00,
2013-05-14 23:41:00,53.1,44.3,30.15,NNE,23,0.0,0.0,72,0.00,,,0.00,WUHU216HW,2013-05-15 06:41:00,
2013-05-14 23:46:00,53.1,44.0,30.15,NNE,23,0.0,0.0,71,0.00,,,0.00,WUHU216HW,2013-05-15 06:46:00,
2013-05-14 23:51:00,52.9,44.2,30.15,NNE,23,0.0,0.0,72,0.00,,,0.00,WUHU216HW,2013-05-15 06:51:00,
2013-05-14 23:56:00,52.7,44.0,30.15,NNE,23,0.0,0.0,72,0.00,,,0.00,WUHU216HW,2013-05-15 06:56:00,